This is the latest recevied weather packets stored in our database for station/object KC1OEK-13. If no packets are shown the sender has not sent any weather packets the latest 10 day(s).
| Time | Temp. | Humidity | Pressure | Rain* | Wind** | Luminosity | Snow |
|---|---|---|---|---|---|---|---|
| 1788047026 | 17.22° C | 79% | 1024.1 hPa | 0 mm | - | 0 W/m² | - |
| 1788046725 | 17.78° C | 78% | 1024.3 hPa | 0 mm | - | 1 W/m² | - |
| 1788046419 | 17.78° C | 78% | 1024.2 hPa | 0 mm | - | 2 W/m² | - |
| 1788046117 | 18.33° C | 77% | 1024.1 hPa | 0 mm | - | 3 W/m² | - |
| 1788045813 | 18.33° C | 74% | 1024 hPa | 0 mm | - | 6 W/m² | - |
| 1788045509 | 18.89° C | 74% | 1024 hPa | 0 mm | - | 8 W/m² | - |
| 1788045204 | 18.89° C | 73% | 1023.5 hPa | 0 mm | - | 12 W/m² | - |
| 1788044899 | 19.44° C | 73% | 1023.8 hPa | 0 mm | - | 15 W/m² | - |
| 1788044598 | 19.44° C | 71% | 1023.6 hPa | 0 mm | - | 18 W/m² | - |
| 1788044297 | 20° C | 71% | 1023.9 hPa | 0 mm | - | 20 W/m² | - |
| 1788043988 | 20° C | 69% | 1023.9 hPa | 0 mm | - | 22 W/m² | - |
| 1788043683 | 20.56° C | 68% | 1024 hPa | 0 mm | - | 24 W/m² | - |
| 1788043378 | 21.11° C | 67% | 1024.1 hPa | 0 mm | - | 26 W/m² | - |
| 1788043077 | 22.22° C | 62% | 1024 hPa | 0 mm | - | 48 W/m² | - |
| 1788042773 | 22.22° C | 62% | 1024.1 hPa | 0 mm | - | 56 W/m² | - |
| 1788042472 | 23.33° C | 60% | 1023.8 hPa | 0 mm | - | 66 W/m² | - |
| 1788042167 | 23.89° C | 56% | 1023.9 hPa | 0 mm | - | 78 W/m² | - |
| 1788041863 | 23.89° C | 54% | 1023.6 hPa | 0 mm | - | 88 W/m² | - |
| 1788041558 | 23.89° C | 56% | 1023.9 hPa | 0 mm | - | 100 W/m² | - |
| 1788041253 | 24.44° C | 54% | 1023.8 hPa | 0 mm | - | 112 W/m² | - |
| 1788040951 | 25° C | 51% | 1023.8 hPa | 0 mm | - | 125 W/m² | - |
| 1788040651 | 25° C | 50% | 1023.6 hPa | 0 mm | - | 137 W/m² | - |
| 1788040345 | 25° C | 45% | 1023.9 hPa | 0 mm | - | 151 W/m² | - |
| 1788040045 | 25° C | 46% | 1023.9 hPa | 0 mm | - | 165 W/m² | - |
| 1788039740 | 24.44° C | 46% | 1024.1 hPa | 0 mm | - | 179 W/m² | - |
* Rain latest hour (hover to see other rain measurements)
** Current wind speed in m/s (hover to see current wind gust speed)